Theta_e
287 287 287 287 287 286 286 287 287 286 287 286 286 286 285 284 283 282 282 280 280 281
289 288 288 288 288 287 288 288 287 287 286 287 286 286 285 285 284 284 283 283 282 281
289 290 289 289 288 288 288 288 288 287 287 287 286 286 286 285 285 284 284 284 282 282
287 288 289 288 289 289 289 289 288 288 287 287 286 286 286 285 285 284 284 284 283 283
287 287 287 287 288 289 288 289 288 288 288 287 287 287 286 285 285 284 283 284 284 283
286 287 287 287 288 288 288 288 288 288 287 287 287 287 287 286 286 285 285 285 284 284
286 287 287 288 288 288 288 287 288 288 288 287 287 287 287 286 286 286 285 285 285 285
287 288 288 287 287 288 288 287 287 287 287 287 287 287 287 286 286 285 285 285 285 285
287 287 286 286 287 287 287 287 287 286 286 286 287 289 289 288 286 286 285 284 285 285
287 286 285 286 286 285 286 286 286 286 286 286 286 289 290 289 287 285 285 285 285 284
286 286 286 285 284 285 285 285 285 286 286 286 286 289 289 289 287 286 286 285 285 284
286 286 285 284 284 284 284 284 285 285 285 285 286 289 289 289 286 285 285 286 285 284
285 284 283 283 283 283 283 283 284 284 285 285 285 288 289 288 286 285 285 285 285 284
284 283 283 282 282 282 281 281 281 282 283 283 284 285 288 289 286 285 284 284 284 282
Wind_Speed
16 11 12 14 11 10 11 11 11 12 14 14 13 11 10 8 8 8 9 9 8 6
14 16 15 17 14 12 14 11 12 13 15 16 15 14 13 11 12 11 11 11 10 9
13 14 15 14 16 16 16 16 15 15 16 16 16 16 15 13 13 13 12 11 12 11
12 13 14 14 16 17 17 16 16 17 16 18 17 17 17 17 17 16 17 15 15 16
12 12 13 15 17 17 18 17 17 16 18 17 19 19 20 20 19 20 19 20 18 18
10 10 13 15 16 15 17 17 16 16 18 19 18 19 20 20 20 21 21 21 21 21
10 11 13 14 14 15 15 16 16 18 19 19 19 19 20 20 20 21 21 21 21 20
12 12 11 12 14 14 14 16 17 17 18 18 17 16 19 19 21 21 21 21 20 20
14 13 12 12 13 13 14 16 17 18 20 20 16 28 31 25 19 21 21 20 20 19
17 15 15 14 12 11 13 14 16 18 19 21 22 32 35 35 21 22 22 21 18 17
18 18 17 12 12 13 11 11 13 17 18 18 19 31 31 32 21 20 23 22 21 20
17 18 18 15 14 13 13 13 14 14 16 18 20 30 28 23 17 19 23 20 21 20
16 15 16 17 16 14 12 12 12 16 16 19 20 28 26 21 13 17 15 18 21 25
18 17 16 16 15 15 14 13 13 15 17 16 17 20 23 23 14 15 14 13 12 9
Wind_Direction
229 232 236 239 235 235 233 234 224 213 219 220 217 213 210 212 215 209 221 217 213 208
226 227 231 235 233 232 236 236 225 215 216 222 219 216 213 216 219 216 216 223 219 218
232 233 238 240 238 237 239 235 232 219 218 221 221 219 216 220 221 216 220 219 215 217
240 242 244 244 244 243 245 242 237 233 223 223 218 218 219 223 222 219 223 222 219 221
243 246 244 243 245 244 244 242 241 236 236 228 228 221 221 222 221 222 222 222 222 222
257 256 254 254 253 250 247 245 246 241 238 237 231 231 229 226 226 227 225 223 222 221
267 260 257 257 255 251 246 245 242 239 240 239 239 234 233 230 231 232 231 227 228 225
294 283 270 264 261 253 245 240 239 239 238 239 237 239 234 230 230 231 234 234 229 227
288 282 268 261 254 258 254 251 247 238 233 231 229 235 232 227 229 231 233 235 234 234
284 275 272 268 267 254 258 261 253 248 248 244 241 239 230 221 215 222 229 230 228 230
286 286 286 283 274 277 271 255 255 257 251 248 249 249 245 234 225 227 234 230 227 225
292 295 289 283 280 280 279 277 273 260 257 248 253 251 248 239 228 230 234 237 229 222
291 285 283 289 286 283 278 276 275 274 265 260 258 258 251 238 222 228 235 236 240 224
292 284 287 283 281 283 287 282 275 272 272 265 257 261 252 238 223 226 226 231 231 212